Retour au catalogue

ONEWEB-0244

ActifCommunicationsPO
NORAD 48776·PAYLOAD·🇬🇧 United Kingdom

Lancé May 28, 2021 depuis Vostochny Cosmodrome

Loading…

Prochains Passages (prochaines 24 heures)

TLE

FraisSource: CelesTrak SupGP

Époque: Sep 14, 2026, 11:07 UTC

1 48776C 21045K   26257.46333333 -.00012640  00000+0 -33616-1 0  2575
2 48776  87.8988 241.3896 0002114  83.3509  18.6800 13.15564685    19

Suivez ONEWEB-0244 en temps réel avec AllMySat

Download on the App Store